Simultaneous Nadir Overpasses (SNOs) Predictions

Prediction of SNOs between GOES-15 and TERRA Satellite Orbit:

Table of predicted SNOs for the next 14.0 days since TLE Epoch: 2/6/2016
Index Date Time (GOES-15) GOES-15 Lat,Lon TERRA Lat,Lon Distance(km) Time Diff (sec)
1 02/06/2016 07:28:34 -0.04,-135.32 0.05,-134.89 48.91 80
2 02/08/2016 07:16:22 -0.05,-135.33 0.69,-131.94 386.64 80
3 02/08/2016 19:37:36 0.05,-135.31 0.42,-137.09 202.29 80
4 02/10/2016 19:28:04 0.05,-135.31 -0.22,-134.13 134.88 80
5 02/11/2016 07:49:28 -0.05,-135.34 -0.88,-139.32 452.06 80
6 02/12/2016 19:15:52 0.05,-135.32 -0.82,-131.17 471.42 80
7 02/13/2016 07:37:15 -0.05,-135.34 -0.28,-136.36 115.71 80
8 02/15/2016 07:22:23 -0.05,-135.34 0.38,-133.41 220.01 80
9 02/15/2016 19:43:38 0.05,-135.30 0.73,-138.56 369.89 80
10 02/17/2016 19:31:25 0.05,-135.29 0.12,-135.59 34.81 80
11 02/19/2016 19:21:52 0.04,-135.27 -0.50,-132.63 300.01 80




NCC Satellite Simultaneous Nadir Overpasses (SNOs) Prediction Service
